CDT,Max TemperatureF,Mean TemperatureF,Min TemperatureF,Max Dew PointF,MeanDew PointF,Min DewpointF,Max Humidity, Mean Humidity, Min Humidity, Max Sea Level PressureIn, Mean Sea Level PressureIn, Min Sea Level PressureIn, Max VisibilityMiles, Mean VisibilityMiles, Min VisibilityMiles, Max Wind SpeedMPH, Mean Wind SpeedMPH, Max Gust SpeedMPH,PrecipitationIn, CloudCover, Events, WindDirDegrees
2013-8-1,93,83,73,77,74,72,97,82,52,30.06,29.98,29.91,10,8,0,25,5,34,0.68,4,Rain-Thunderstorm,277
2013-8-2,93,82,72,75,73,70,97,75,48,30.01,29.98,29.94,10,9,5,12,1,17,0.01,2,Thunderstorm,236
2013-8-3,93,83,75,76,74,71,94,76,50,30.07,30.03,29.99,10,8,3,8,2,,0.00,1,,303
2013-8-4,95,84,75,76,73,69,94,73,44,30.10,30.04,29.98,10,9,5,8,2,,0.00,1,,283
2013-8-5,95,84,75,75,73,70,94,72,46,30.06,30.00,29.95,10,9,7,8,3,,0.00,0,,271
2013-8-6,96,85,75,76,73,69,94,71,43,30.02,29.96,29.90,10,9,5,8,2,,0.00,0,,261
2013-8-7,96,85,75,76,73,68,94,72,41,30.00,29.94,29.88,10,9,6,6,2,,0.00,1,,282
2013-8-8,96,84,73,76,73,70,93,71,47,29.97,29.92,29.88,10,9,5,13,2,26,0.00,1,Rain-Thunderstorm,171
2013-8-9,95,84,75,76,74,72,94,82,49,30.04,29.98,29.94,10,8,2,20,2,24,0.16,1,Rain-Thunderstorm,124
2013-8-10,95,84,75,77,73,68,96,81,43,30.10,30.05,30.00,10,9,1,25,3,32,0.52,2,Rain-Thunderstorm,153
2013-8-11,91,82,73,75,73,70,96,79,52,30.12,30.09,30.05,10,10,4,17,2,24,0.00,1,Thunderstorm,181
2013-8-12,93,83,73,76,72,69,97,82,47,30.11,30.07,30.01,10,10,7,10,2,,0.01,1,Thunderstorm,184
2013-8-13,89,80,72,76,73,71,100,88,67,30.06,30.01,29.94,10,7,1,17,4,28,1.44,4,Rain-Thunderstorm,254
2013-8-14,82,76,71,75,73,70,100,94,74,30.03,29.97,29.93,10,7,0,12,2,,1.40,6,Fog-Rain-Thunderstorm,287
2013-8-15,88,79,71,72,70,67,96,76,51,30.02,29.97,29.93,10,8,4,8,2,,0.01,3,,20
2013-8-16,90,80,70,74,69,67,100,81,48,30.01,29.97,29.91,10,7,0,26,4,34,1.95,6,Fog-Rain-Thunderstorm,18
2013-8-17,84,76,69,70,69,66,100,86,62,30.02,29.98,29.95,10,8,2,10,2,16,0.00,5,Rain,71
2013-8-18,81,74,69,72,70,68,100,88,67,30.05,30.00,29.97,10,7,1,12,5,18,0.03,7,Rain,23
2013-8-19,87,80,73,72,71,68,94,83,55,30.08,30.03,29.98,10,9,2,6,2,,0.00,6,,8
2013-8-20,91,80,70,75,71,68,97,82,45,30.09,30.04,29.99,10,9,2,13,2,,0.12,3,Rain-Thunderstorm,93
2013-8-21,88,80,71,75,72,70,100,87,61,30.16,30.10,30.05,10,6,0,14,2,20,0.01,4,Fog-Thunderstorm,123
2013-8-22,91,82,73,73,72,69,96,75,50,30.12,30.06,29.98,10,10,7,6,2,,0.00,1,,77
2013-8-23,91,82,72,73,72,69,100,80,50,30.03,30.00,29.94,10,8,0,8,2,,0.00,2,Fog,52
2013-8-24,87,78,71,73,71,70,94,84,61,30.12,30.05,30.00,10,10,7,12,2,17,0.01,2,Rain,72
2013-8-25,87,78,71,76,72,69,93,80,65,30.20,30.15,30.10,10,10,2,10,4,16,0.09,3,Rain,80
2013-8-26,89,80,72,72,69,63,96,76,43,30.21,30.16,30.11,10,9,5,9,3,,0.00,3,,81
2013-8-27,87,76,64,66,63,60,93,68,41,30.15,30.10,30.05,10,10,9,8,1,,0.00,0,,15
2013-8-28,87,74,63,67,63,60,93,71,43,30.11,30.06,30.03,10,10,7,8,1,,0.00,1,,53
2013-8-29,90,78,66,70,65,63,93,70,42,30.09,30.04,29.99,10,9,6,7,1,,0.00,1,,324
2013-8-30,91,78,66,72,68,64,93,72,41,30.05,29.99,29.94,10,8,5,6,1,,0.00,1,,337
2013-8-31,91,80,70,73,70,68,93,74,48,29.99,29.93,29.87,10,8,3,8,2,,0.00,0,,267